Location: Newark
(34.9500°N, 139.9667°E)
Time: 06:29:17
(UTC+00:00)

deb Explorer IX - Pass Details

Date: 19 December 2019
Orbit: 548 x 1101 km, 38.8° (Epoch: 27 January)

Event Time Altitude Azimuth Distance (km) Brightness Sun altitude
Rises 09:56:02 0° 281° (WNW) 3,421 ? -28.8°
Reaches altitude 10° 09:58:51 10° 269° (W) 2,576 ? -29.4°
Maximum altitude 10:03:52 26° 215° (SW) 1,829 ? -30.4°
Enters shadow 10:08:27 13° 168° (SSE) 2,590 ? -31.3°
